Regional Weather Roundup
Issued by NWS Cleveland, OH

Home | Current Version | Previous Version | Text Only | Print | Product List | Glossary On
Versions: 1 2 3 4 5 6 7 8 9 10 11 12 13 14 15 16 17 18 19 20 21 22 23 24 25 26 27 28 29 30 31 32 33 34 35 36 37 38 39 40 41 42 43 44 45 46 47 48 49 50
000
ASUS41 KCLE 230912
RWRCLE
OHIO REGIONAL WEATHER ROUNDUP
NATIONAL WEATHER SERVICE WILMINGTON, OH
400 AM EST THU NOV 23 2017

NOTE: "FAIR" INDICATES FEW OR NO CLOUDS BELOW 12,000 FEET WITH NO
SIGNIFICANT WEATHER AND/OR OBSTRUCTIONS TO VISIBILITY.

OHZ001>008-015>018-024>027-034-035-043-044-231000-
   NORTHWEST OHIO

CITY           SKY/WX    TMP DP  RH WIND       PRES   REMARKS
DEFIANCE       FAIR      28  23  81 SW5       30.18F WCI  23
FINDLAY        CLOUDY    30  23  75 SW6       30.17F WCI  24
TOLEDO EXPRESS CLOUDY    30  23  75 S5        30.17F WCI  25
TOLEDO EXEC    CLOUDY    29  23  78 S5        30.18F WCI  24
LIMA           CLOUDY    28  23  81 S6        30.18S WCI  22
$$

OHZ009>014-019>023-028>033-038-089-231000-
   NORTHEAST OHIO

CITY           SKY/WX    TMP DP  RH WIND       PRES   REMARKS
CLE-HOPKINS    CLOUDY    28  19  69 SW5       30.21F WCI  23
CLE-LAKEFRONT  MOCLDY    30  17  58 SW12      30.19F WCI  20
CUY CO. ARPT   NOT AVBL
LORAIN-ELYRIA  CLOUDY    26  17  68 SW5       30.19F WCI  20
ASHTABULA      CLOUDY    31  22  69 SW7       30.17F WCI  24
AKRON-CANTON   FAIR      25  17  72 CALM      30.17F
WOOSTER        FAIR      21  19  92 CALM      30.18F
MANSFIELD      CLOUDY    25  21  85 S5        30.16F WCI  19
YOUNGSTOWN     CLOUDY    28  21  75 W6        30.16F WCI  22
$$

OHZ042-051>053-060>062-070>072-077>081-231000-
  SOUTHWEST OHIO

CITY           SKY/WX    TMP DP  RH WIND       PRES   REMARKS
CINC-COVINGTON MOCLDY    24  22  91 CALM      30.19F
CINC-LUNKEN    FAIR      23  22  96 CALM      30.24S FOG
HAMILTON       FAIR      22  21  96 CALM      30.23S
DAYTON         MOCLDY    25  22  88 S6        30.19F WCI  18
WRIGHT-PAT AFB MOCLDY    24  21  89 SE3       30.19F
DAYTON GENERAL FAIR      27  20  75 CALM      30.19S
WILMINGTON     FAIR      22  21  96 CALM      30.19S
$$

OHZ036-037-039>041-045>050-054>059-063>069-073>076-082>088-231000-
  CENTRAL AND SOUTHEAST OHIO

CITY           SKY/WX    TMP DP  RH WIND       PRES   REMARKS
COLUMBUS       MOCLDY    24  21  88 CALM      30.20S
OSU AIRPORT    FAIR      24  24 100 CALM      30.20F
BOLTON FIELD   FAIR      20  19  95 CALM      30.21S
RICKENBACK AFB FAIR      22  21  96 CALM      30.21S
NEWARK         FAIR      22  18  85 CALM      30.19F
MARION         FAIR      24  21  88 SW3       30.19F
LANCASTER      FAIR      20  18  92 CALM      30.20S
ZANESVILLE     FAIR      22  19  89 CALM      30.19F
NEW PHILLY     FAIR      25  20  81 CALM      30.20F
$$




USA.gov is the U.S. government's official web portal to all federal, state and local government web resources and services.